�������l�o���
Date,Time,MP-1(��Sv/h),MP-2(��Sv/h),MP-3(��Sv/h),MP-4(��Sv/h),MP-5(��Sv/h),MP-6(��Sv/h),MP-7(��Sv/h),MP-8(��Sv/h),����,����(m/s),���J
2023/12/07,00:00,0.508,0.768,0.481,0.964,0.690,0.312,0.559,0.523,��쐼,4.2,��
2023/12/07,00:10,0.506,0.767,0.481,0.962,0.692,0.311,0.559,0.523,��쐼,4.5,��
2023/12/07,00:20,0.507,0.766,0.479,0.963,0.691,0.311,0.561,0.524,��쐼,4.8,��
2023/12/07,00:30,0.507,0.768,0.479,0.962,0.691,0.312,0.561,0.523,��쐼,4.7,��
2023/12/07,00:40,0.506,0.769,0.480,0.961,0.691,0.312,0.559,0.522,��쐼,5.0,��
2023/12/07,00:50,0.507,0.767,0.479,0.962,0.690,0.313,0.559,0.524,��쐼,4.2,��
2023/12/07,01:00,0.507,0.768,0.481,0.961,0.691,0.311,0.559,0.525,��쐼,3.6,��
2023/12/07,01:10,0.507,0.768,0.481,0.963,0.692,0.313,0.560,0.524,��쐼,2.9,��
2023/12/07,01:20,0.508,0.768,0.480,0.962,0.690,0.314,0.560,0.524,�쐼,2.2,��
2023/12/07,01:30,0.508,0.771,0.479,0.961,0.690,0.312,0.560,0.523,��쐼,4.1,��
2023/12/07,01:40,0.506,0.768,0.479,0.962,0.691,0.312,0.561,0.525,��,4.2,��
2023/12/07,01:50,0.506,0.766,0.480,0.962,0.689,0.312,0.560,0.523,��,3.9,��
2023/12/07,02:00,0.507,0.767,0.481,0.961,0.690,0.312,0.560,0.525,��,3.6,��
2023/12/07,02:10,0.506,0.767,0.481,0.962,0.689,0.311,0.560,0.523,��쐼,3.1,��
2023/12/07,02:20,0.507,0.768,0.480,0.963,0.692,0.313,0.560,0.524,��쐼,2.5,��
2023/12/07,02:30,0.509,0.766,0.481,0.962,0.691,0.311,0.560,0.524,�쐼,1.8,��
2023/12/07,02:40,0.507,0.768,0.480,0.963,0.692,0.312,0.560,0.525,���쐼,1.1,��
2023/12/07,02:50,0.508,0.768,0.482,0.963,0.690,0.313,0.560,0.523,-,CALM,��
2023/12/07,03:00,0.506,0.768,0.481,0.962,0.691,0.313,0.559,0.524,-,CALM,��
2023/12/07,03:10,0.506,0.767,0.480,0.962,0.692,0.312,0.560,0.524,���쐼,1.4,��
2023/12/07,03:20,0.507,0.768,0.481,0.964,0.691,0.312,0.561,0.522,��쐼,2.3,��
2023/12/07,03:30,0.507,0.768,0.481,0.962,0.692,0.312,0.561,0.523,��,2.6,��
2023/12/07,03:40,0.509,0.768,0.479,0.963,0.690,0.312,0.561,0.525,��,3.6,��
2023/12/07,03:50,0.508,0.766,0.481,0.962,0.691,0.312,0.559,0.524,��,3.4,��
2023/12/07,04:00,0.508,0.768,0.480,0.963,0.692,0.312,0.560,0.525,��,3.5,��
2023/12/07,04:10,0.507,0.770,0.481,0.963,0.691,0.313,0.560,0.523,��,3.3,��
2023/12/07,04:20,0.507,0.769,0.479,0.963,0.691,0.312,0.559,0.523,��쐼,4.5,��
2023/12/07,04:30,0.508,0.769,0.481,0.966,0.692,0.313,0.559,0.525,��,4.8,��
2023/12/07,04:40,0.507,0.767,0.479,0.962,0.692,0.313,0.561,0.523,��,5.9,��
2023/12/07,04:50,0.508,0.768,0.480,0.965,0.693,0.313,0.560,0.524,��,6.0,��
2023/12/07,05:00,0.507,0.770,0.481,0.964,0.693,0.313,0.561,0.524,��,6.9,��
2023/12/07,05:10,0.507,0.770,0.481,0.964,0.691,0.313,0.559,0.524,��,7.3,��
2023/12/07,05:20,0.506,0.769,0.481,0.962,0.690,0.313,0.559,0.523,��,8.0,��
2023/12/07,05:30,0.507,0.769,0.480,0.963,0.691,0.313,0.559,0.524,��,8.7,��
2023/12/07,05:40,0.508,0.767,0.481,0.965,0.692,0.312,0.560,0.525,��,8.3,��
2023/12/07,05:50,0.508,0.768,0.480,0.963,0.690,0.313,0.561,0.523,��,9.1,��
2023/12/07,06:00,0.508,0.767,0.480,0.964,0.692,0.313,0.561,0.524,��,8.1,��
2023/12/07,06:10,0.507,0.768,0.481,0.962,0.692,0.312,0.561,0.525,��쐼,6.4,��
2023/12/07,06:20,0.508,0.769,0.480,0.964,0.690,0.313,0.560,0.523,��쐼,7.4,��
2023/12/07,06:30,0.507,0.765,0.482,0.964,0.690,0.313,0.561,0.524,��,7.4,��
2023/12/07,06:40,0.506,0.769,0.482,0.962,0.692,0.313,0.563,0.524,��,7.7,��
2023/12/07,06:50,0.509,0.768,0.481,0.963,0.690,0.312,0.561,0.524,��,8.3,��
2023/12/07,07:00,0.508,0.768,0.482,0.963,0.692,0.313,0.562,0.526,��,9.6,��
2023/12/07,07:10,0.508,0.767,0.481,0.964,0.691,0.311,0.561,0.525,��,9.3,��
2023/12/07,07:20,0.510,0.769,0.481,0.964,0.691,0.313,0.562,0.525,��,9.5,��
2023/12/07,07:30,0.509,0.770,0.481,0.962,0.692,0.313,0.563,0.524,��,8.9,��
2023/12/07,07:40,0.509,0.769,0.481,0.964,0.691,0.314,0.561,0.526,��,8.1,��
2023/12/07,07:50,0.509,0.770,0.481,0.964,0.692,0.312,0.561,0.526,��,8.2,��
2023/12/07,08:00,0.508,0.769,0.480,0.962,0.692,0.313,0.562,0.526,��,6.7,��
2023/12/07,08:10,0.509,0.771,0.480,0.962,0.693,0.314,0.562,0.526,��쐼,7.5,��
2023/12/07,08:20,0.508,0.770,0.482,0.964,0.692,0.313,0.562,0.524,��쐼,8.8,��
2023/12/07,08:30,0.510,0.771,0.482,0.963,0.691,0.313,0.562,0.525,��쐼,8.8,��
2023/12/07,08:40,0.510,0.772,0.482,0.964,0.693,0.314,0.564,0.526,��쐼,7.5,��
2023/12/07,08:50,0.510,0.772,0.483,0.965,0.691,0.313,0.561,0.526,��쐼,6.8,��
2023/12/07,09:00,0.509,0.771,0.482,0.966,0.692,0.313,0.563,0.526,��쐼,6.6,��
2023/12/07,09:10,0.509,0.772,0.481,0.964,0.691,0.313,0.564,0.526,��쐼,5.3,��
2023/12/07,09:20,0.511,0.772,0.484,0.965,0.695,0.313,0.561,0.526,��쐼,4.7,��
2023/12/07,09:30,0.509,0.773,0.481,0.965,0.692,0.313,0.560,0.526,��쐼,4.2,��
2023/12/07,09:40,0.509,0.771,0.482,0.967,0.692,0.314,0.560,0.526,�쐼,3.7,��
2023/12/07,09:50,0.510,0.771,0.483,0.965,0.693,0.315,0.561,0.526,���쐼,4.2,��
2023/12/07,10:00,0.511,0.772,0.484,0.966,0.693,0.315,0.563,0.527,�쐼,5.7,��
2023/12/07,10:10,0.509,0.772,0.483,0.966,0.694,0.314,0.562,0.527,�쐼,5.4,��
2023/12/07,10:20,0.509,0.771,0.483,0.965,0.693,0.314,0.563,0.526,���쐼,4.7,��
2023/12/07,10:30,0.510,0.771,0.484,0.966,0.695,0.310,0.563,0.526,���쐼,3.6,��
2023/12/07,10:40,0.511,0.770,0.484,0.966,0.694,0.308,0.562,0.526,���쐼,4.0,��
2023/12/07,10:50,0.509,0.772,0.485,0.965,0.695,0.311,0.563,0.526,�쐼,5.9,��
2023/12/07,11:00,0.511,0.772,0.484,0.966,0.695,0.313,0.563,0.525,�쐼,6.2,��
2023/12/07,11:10,0.509,0.771,0.484,0.967,0.694,0.312,0.563,0.528,��쐼,7.1,��
2023/12/07,11:20,0.511,0.772,0.486,0.968,0.695,0.313,0.564,0.527,�쐼,6.6,��
2023/12/07,11:30,0.512,0.773,0.486,0.965,0.696,0.313,0.562,0.527,�쐼,5.7,��
2023/12/07,11:40,0.514,0.770,0.483,0.965,0.697,0.312,0.564,0.528,���쐼,4.4,��
2023/12/07,11:50,0.511,0.772,0.485,0.967,0.699,0.314,0.564,0.527,�쐼,4.2,��
2023/12/07,12:00,0.511,0.774,0.485,0.967,0.699,0.313,0.564,0.528,��쐼,5.7,��
2023/12/07,12:10,0.512,0.774,0.484,0.969,0.699,0.313,0.566,0.526,�쐼,4.2,��
2023/12/07,12:20,0.514,0.775,0.485,0.969,0.699,0.315,0.562,0.526,��쐼,4.6,��
2023/12/07,12:30,0.513,0.776,0.485,0.969,0.697,0.315,0.565,0.525,��쐼,5.6,��
2023/12/07,12:40,0.512,0.773,0.485,0.969,0.698,0.315,0.564,0.526,�쐼,5.0,��
2023/12/07,12:50,0.513,0.774,0.486,0.968,0.699,0.315,0.563,0.525,�쐼,6.6,��
2023/12/07,13:00,0.513,0.776,0.484,0.968,0.698,0.317,0.565,0.526,�쐼,6.2,��
2023/12/07,13:10,0.513,0.775,0.486,0.971,0.700,0.315,0.564,0.525,��,4.0,��
2023/12/07,13:20,0.513,0.777,0.486,0.969,0.699,0.316,0.564,0.526,��,5.3,��
2023/12/07,13:30,0.512,0.778,0.485,0.969,0.699,0.315,0.565,0.525,��,6.0,��
2023/12/07,13:40,0.512,0.775,0.487,0.969,0.699,0.315,0.565,0.526,��,6.8,��
2023/12/07,13:50,0.514,0.777,0.484,0.969,0.699,0.314,0.565,0.526,��,7.0,��
2023/12/07,14:00,0.514,0.775,0.484,0.967,0.697,0.314,0.565,0.526,��,8.7,�L
2023/12/07,14:10,0.514,0.775,0.487,0.970,0.700,0.312,0.563,0.524,��,8.6,��
2023/12/07,14:20,0.512,0.776,0.487,0.970,0.698,0.315,0.562,0.527,���k��,10.0,��
2023/12/07,14:30,0.512,0.775,0.487,0.971,0.696,0.312,0.564,0.527,���k��,12.2,�L
2023/12/07,14:40,0.516,0.777,0.489,0.973,0.700,0.315,0.562,0.526,��,8.7,�L
2023/12/07,14:50,0.521,0.783,0.495,0.978,0.702,0.322,0.565,0.528,��,13.8,�L
2023/12/07,15:00,0.523,0.784,0.499,0.984,0.705,0.326,0.567,0.528,��,13.0,�L
2023/12/07,15:10,0.530,0.790,0.506,0.990,0.708,0.332,0.569,0.531,��,9.5,�L
2023/12/07,15:20,0.533,0.792,0.509,0.990,0.713,0.336,0.570,0.533,���k��,9.8,�L
2023/12/07,15:30,0.535,0.791,0.510,0.993,0.711,0.334,0.571,0.532,��,8.3,�L
2023/12/07,15:40,0.533,0.788,0.507,0.991,0.710,0.333,0.570,0.533,���k��,9.7,��
2023/12/07,15:50,0.531,0.789,0.505,0.987,0.709,0.331,0.568,0.533,��,10.6,��
2023/12/07,16:00,0.529,0.786,0.502,0.984,0.707,0.328,0.571,0.533,��,14.4,��
2023/12/07,16:10,0.527,0.783,0.498,0.980,0.703,0.325,0.567,0.533,���쐼,10.2,��
2023/12/07,16:20,0.522,0.781,0.495,0.979,0.703,0.324,0.566,0.531,��,13.0,��
2023/12/07,16:30,0.522,0.781,0.492,0.975,0.700,0.321,0.566,0.531,���쐼,10.3,��
2023/12/07,16:40,0.519,0.778,0.491,0.974,0.699,0.319,0.565,0.532,��,10.0,��
2023/12/07,16:50,0.516,0.775,0.489,0.974,0.695,0.318,0.563,0.532,��,10.6,��
2023/12/07,17:00,0.515,0.776,0.490,0.973,0.695,0.316,0.563,0.530,��,11.3,��
2023/12/07,17:10,0.515,0.773,0.487,0.970,0.695,0.315,0.562,0.530,��,6.4,��
2023/12/07,17:20,0.512,0.772,0.486,0.970,0.695,0.316,0.562,0.530,���k��,12.2,��
2023/12/07,17:30,0.514,0.771,0.485,0.970,0.694,0.313,0.563,0.529,��,6.4,��
2023/12/07,17:40,0.511,0.772,0.484,0.969,0.694,0.315,0.562,0.529,���쐼,4.8,��
2023/12/07,17:50,0.511,0.771,0.484,0.968,0.691,0.314,0.562,0.530,���쐼,7.0,��
2023/12/07,18:00,0.512,0.774,0.482,0.969,0.690,0.313,0.561,0.530,��,6.3,��
2023/12/07,18:10,0.511,0.771,0.483,0.968,0.692,0.313,0.562,0.529,���k��,5.3,��
2023/12/07,18:20,0.510,0.772,0.483,0.968,0.692,0.312,0.562,0.529,�k�k��,2.6,��
2023/12/07,18:30,0.510,0.771,0.481,0.967,0.691,0.313,0.562,0.530,�k��,2.9,��
2023/12/07,18:40,0.511,0.772,0.482,0.967,0.691,0.313,0.561,0.528,��,4.3,��
2023/12/07,18:50,0.511,0.772,0.482,0.969,0.692,0.311,0.562,0.530,��,4.7,��
2023/12/07,19:00,0.511,0.770,0.481,0.967,0.694,0.313,0.562,0.526,���k��,2.8,��
2023/12/07,19:10,0.510,0.771,0.482,0.966,0.690,0.313,0.564,0.528,��,2.6,��
2023/12/07,19:20,0.512,0.769,0.483,0.968,0.692,0.312,0.560,0.528,���k��,2.6,��
2023/12/07,19:30,0.511,0.771,0.482,0.965,0.692,0.312,0.563,0.529,��,1.9,��
2023/12/07,19:40,0.509,0.771,0.483,0.967,0.693,0.312,0.562,0.528,���k��,4.4,��
2023/12/07,19:50,0.511,0.772,0.482,0.967,0.692,0.312,0.564,0.526,��,3.8,��
2023/12/07,20:00,0.509,0.771,0.480,0.965,0.693,0.312,0.563,0.528,���쐼,3.9,��
2023/12/07,20:10,0.509,0.772,0.480,0.966,0.692,0.312,0.563,0.525,��,3.4,��
2023/12/07,20:20,0.508,0.771,0.482,0.967,0.692,0.311,0.561,0.526,���k��,2.6,��
2023/12/07,20:30,0.510,0.771,0.481,0.968,0.692,0.311,0.561,0.527,���쐼,2.9,��
2023/12/07,20:40,0.511,0.770,0.479,0.968,0.692,0.312,0.564,0.527,�쐼,2.5,��
2023/12/07,20:50,0.510,0.772,0.481,0.967,0.691,0.312,0.561,0.526,���쐼,2.2,��
2023/12/07,21:00,0.511,0.772,0.482,0.969,0.691,0.312,0.562,0.526,���쐼,1.8,��
2023/12/07,21:10,0.510,0.770,0.482,0.968,0.691,0.312,0.561,0.526,��쐼,1.5,��
2023/12/07,21:20,0.511,0.771,0.480,0.968,0.692,0.311,0.562,0.525,��쐼,2.9,��
2023/12/07,21:30,0.509,0.770,0.481,0.965,0.691,0.312,0.562,0.527,��,0.9,��
2023/12/07,21:40,0.510,0.772,0.479,0.965,0.691,0.311,0.562,0.525,���k��,0.8,��
2023/12/07,21:50,0.510,0.772,0.479,0.966,0.692,0.312,0.562,0.526,��쓌,0.8,��
2023/12/07,22:00,0.510,0.770,0.481,0.966,0.690,0.313,0.562,0.525,-,CALM,��
2023/12/07,22:10,0.510,0.772,0.482,0.967,0.693,0.312,0.563,0.525,��,0.8,��
2023/12/07,22:20,0.509,0.772,0.481,0.966,0.692,0.312,0.561,0.525,�k,2.0,��
2023/12/07,22:30,0.508,0.772,0.478,0.967,0.691,0.312,0.562,0.527,-,CALM,��
2023/12/07,22:40,0.510,0.771,0.480,0.966,0.692,0.312,0.561,0.525,��쐼,1.5,��
2023/12/07,22:50,0.510,0.772,0.481,0.966,0.692,0.311,0.562,0.524,�k�k��,1.2,��
2023/12/07,23:00,0.509,0.772,0.478,0.967,0.693,0.311,0.560,0.524,�k��,3.5,��
2023/12/07,23:10,0.509,0.773,0.480,0.968,0.691,0.311,0.561,0.526,�k,1.5,��
2023/12/07,23:20,0.510,0.773,0.482,0.967,0.692,0.312,0.561,0.525,�k��,3.1,��
2023/12/07,23:30,0.510,0.770,0.480,0.969,0.692,0.310,0.563,0.523,���k��,2.2,��
2023/12/07,23:40,0.510,0.770,0.481,0.968,0.693,0.311,0.562,0.524,���k��,2.0,��
2023/12/07,23:50,0.509,0.772,0.480,0.966,0.692,0.311,0.563,0.526,���k��,1.8,��
